Location: Dunedin
(45.8670°S, 170.5000°E)
Time: 05:14:06
(UTC+12:00)

Daily predictions for brighter satellites

Satellite Brightness Start Highest point End
(mag) Time Altitude Azimuth Time Altitude Azimuth Time Altitude Azimuth
SL-16 R/B 4.5 03:51:31 10° S 03:53:21 20° S 03:53:21 20° S
Cosmos 2369 Rocket 3.6 04:06:05 34° ESE 04:06:05 34° ESE 04:10:34 10° ENE
SL-16 R/B 3.7 04:15:47 31° SSE 04:15:47 31° SSE 04:18:39 10° SSE
Cosmos 1943 Rocket 3.9 04:17:46 25° NE 04:17:46 25° NE 04:20:04 10° NE
ATLAS 5 CENTAUR R/B 4.5 04:17:59 15° S 04:18:44 16° S 04:22:01 10° SE
Cosmos 1745 Rocket 4.5 04:28:24 46° NE 04:29:46 56° E 04:35:50 10° SSE
H-2A R/B 3.8 04:35:53 10° SSE 04:39:50 31° E 04:40:19 30° ENE
Cosmos 2237 Rocket 4.1 04:45:54 18° S 04:45:54 18° S 04:47:44 10° S
Okean O Rocket 4.1 04:42:16 10° ENE 04:45:35 21° ESE 04:48:54 10° SSE
Nadezhda 1 Rocket 3.9 04:45:25 10° S 04:51:50 87° E 04:58:14 10° N
Cosmos 1603 4.3 04:51:37 36° NNE 04:53:32 52° ENE 04:59:01 10° SE
Gbstr 26 Del rocket 4.2 04:53:41 66° WSW 04:54:56 87° NNW 05:03:03 10° ENE
USA 234 3.3 04:57:40 10° SE 05:04:12 64° SSW 05:05:11 57° WSW
Cosmos 1607 3.8 05:03:26 65° NW 05:04:29 90° WSW 05:10:46 10° SE
Cosmos 1709 Rocket 4.4 05:03:28 10° N 05:09:32 64° E 05:15:46 10° SSE
Lacrosse 5 3.2 05:11:00 27° S 05:11:00 27° S 05:15:10 10° SE
Cosmos 1943 3.6 05:08:58 24° N 05:12:26 62° ENE 05:18:07 10° SSE
Cosmos 304 Rocket 3.7 05:15:52 59° SSW 05:16:49 85° ESE 05:21:40 10° NNE
Cosmos 2221 3.7 05:12:50 10° S 05:17:08 44° ESE 05:21:23 10° NNE
Cosmos 1452 Rocket 3.4 05:16:25 48° SSW 05:17:57 83° WNW 05:23:17 10° NNE
BREEZE-M DEB (TANK) 4.2 05:19:50 27° NNE 05:20:03 28° NNE 05:22:19 10° E
CZ-4B R/B 3.8 05:18:31 10° SE 05:21:33 26° E 05:24:31 10° NNE
USA 276 3.6 05:22:50 37° ENE 05:22:50 37° ENE 05:25:13 10° ESE
CZ-3 R/B 4.1 05:11:15 20° NW 05:23:19 33° N 05:30:47 10° NE
X-37B 3.2 05:24:29 16° NNE 05:24:46 16° NNE 05:26:51 10° ENE
SL-8 R/B 3.7 05:29:07 60° SW 05:29:55 76° SSE 05:34:45 10° E
Cosmos 1656 Rocket 3.7 05:29:26 14° SSW 05:34:20 83° ESE 05:39:53 10° NNE
MOS 1-B 4.2 05:29:53 10° N 05:35:41 75° WNW 05:41:34 10° SSW
SL-16 R/B 4.5 05:37:15 10° SSW 05:38:27 12° SSW 05:38:27 12° SSW
Cosmos 2058 3.8 05:37:34 10° N 05:41:41 52° E 05:45:51 10° SSE
CZ-4B DEB 4.2 05:37:25 10° N 05:42:58 65° WNW 05:48:36 10° SSW
ARGOS Delta rocket 4.0 05:43:17 10° NNE 05:47:40 67° ESE 05:52:13 10° S
Cosmos 2369 Rocket 2.5 05:47:58 34° WSW 05:49:29 41° WNW 05:54:44 10° N
CZ-4B R/B 3.2 05:46:08 10° NNE 05:51:51 87° WNW 05:57:34 10° SSW
CZ-4 R/B 4.4 05:50:16 10° E 05:52:41 15° ESE 05:55:05 10° SSE
ASTEX 1 3.8 05:48:25 10° NNW 05:53:08 41° W 05:57:56 10° SSW
Cosmos 1408 3.4 05:53:11 10° N 05:56:45 52° E 06:00:21 10° SSE
Meteor 1-27 4.5 05:51:43 10° SSW 05:57:04 45° W 06:02:25 10° NNW
SL-16 R/B 3.6 05:57:40 20° SW 05:57:48 20° SW 06:01:55 10° S
Cosmos 1943 Rocket 3.5 05:59:23 21° NW 05:59:23 21° NW 06:02:15 10° NNW
Cosmos 724 4.4 05:51:42 10° NNW 05:57:55 90° W 06:04:08 10° SE
Cosmos 1842 Rocket 3.6 05:54:19 10° SSW 05:58:44 58° W 06:03:04 10° N
H-2A R/B 4.4 05:55:33 10° NNW 05:56:25 15° NNW 05:56:25 15° NNW
Cosmos 1892 2.6 05:55:39 10° N 05:59:27 87° W 06:03:20 10° S
PAYLOAD B 4.3 05:54:29 10° N 05:59:59 55° W 06:05:35 10° SSW
Cosmos 2181 Rocket 4.0 05:53:34 10° SSW 06:00:07 76° W 06:06:32 10° N
H-2A R/B 2.9 05:58:07 10° N 06:01:47 47° W 06:04:23 18° SSW
Cosmos 1048 Rocket 4.1 05:57:54 10° NW 06:03:13 59° WSW 06:08:38 10° SSE
ERS-2 2.5 06:00:17 10° S 06:03:48 41° WSW 06:04:40 35° WNW
ATLAS 5 CENTAUR R/B 3.4 06:00:08 10° SSW 06:05:20 33° SE 06:09:48 10° E
SMAP 3.0 06:02:38 10° NNE 06:07:20 83° WNW 06:12:06 10° SSW
Meteor 2-2 Rocket 4.3 06:02:58 10° SSW 06:09:00 65° W 06:14:54 10° N
ERBS 2.2 06:10:50 31° WNW 06:12:18 71° SW 06:15:45 10° SE
CORIOLIS 4.1 06:07:25 10° NNE 06:12:48 90° WNW 06:18:16 10° SSW
Cosmos 1110 Rocket 3.9 06:08:51 10° SSW 06:14:03 65° WNW 06:19:12 10° N
Okean-O 4.5 06:11:23 10° NE 06:15:23 33° ESE 06:19:26 10° S
SAR-Lupe-4 3.5 06:11:50 10° S 06:15:29 76° WSW 06:19:05 10° NNW
H-2A R/B 2.9 06:11:54 10° S 06:15:44 29° WSW 06:17:26 22° WNW
YAOGAN 6 2.5 06:12:18 10° N 06:15:50 67° W 06:19:28 10° SSW
Cosmos 1869 3.8 06:13:04 10° SSW 06:16:42 35° W 06:20:20 10° NNW
ADEOS Rocket 3.4 06:11:26 10° SSE 06:17:48 79° ENE 06:24:50 10° NNW
Okean O Rocket 1.9 06:17:18 10° N 06:21:36 47° W 06:25:57 10° SSW
Envisat 3.1 06:17:07 10° N 06:22:08 54° W 06:27:12 10° SSW
Cosmos 1269 Rocket 4.1 06:18:52 10° NNW 06:24:12 83° ENE 06:29:37 10° SSE
Cosmos 1939 Rocket 4.4 06:21:07 10° NE 06:25:01 40° ESE 06:28:56 10° S
Cosmos 1606 4.2 06:22:22 10° S 06:26:06 40° ESE 06:29:48 10° NNE
Cosmos 1302 Rocket 4.1 06:23:35 10° SSW 06:28:58 82° ESE 06:34:16 10° NNE
Cosmos 2184 Rocket 4.0 06:24:02 10° N 06:30:14 84° W 06:36:32 10° S
SAR-Lupe-1 4.2 06:26:49 10° S 06:30:25 53° WSW 06:33:58 10° NNW
USA 81 4.0 06:25:12 10° NNW 06:30:29 70° W 06:35:52 10° S
Cosmos 2074 Rocket 4.0 06:25:04 10° N 06:31:24 80° W 06:37:48 10° S
Cosmos 1825 2.1 06:31:22 10° N 06:35:10 80° W 06:39:04 10° S
Shenzhou-11 Module 2.6 06:34:46 19° WNW 06:35:59 31° N 06:38:09 10° ENE
Cosmos 2151 3.3 06:31:59 10° N 06:36:19 75° E 06:40:43 10° SSE
Helios 1A Rocket 3.1 06:32:28 10° NNE 06:36:40 83° ESE 06:40:55 10° SSW
Nadezhda 3 Rocket 4.2 06:35:21 10° S 06:41:48 82° E 06:48:14 10° N
IRS-1C Rocket 4.1 06:41:11 10° NNE 06:46:29 79° WNW 06:51:52 10° SSW
USA 234 4.1 06:40:38 10° SE 06:46:33 36° S 06:52:28 10° WSW
FengYun 1-2 T 4.3 06:43:14 10° N 06:48:53 68° WNW 06:54:37 10° SSW
Cosmos 1766 Rocket 4.2 06:45:08 10° N 06:49:27 63° E 06:53:51 10° SSE
Cosmos 1076 Rocket 4.1 06:47:27 10° NW 06:51:29 35° WSW 06:55:34 10° S
YAOGAN 1 3.6 06:49:28 10° NNE 06:53:42 52° ESE 06:58:00 10° S
CZ-4B R/B 2.7 06:50:52 10° SSW 06:53:42 22° WSW 06:56:30 10° WNW
Cosmos 2221 3.9 06:51:13 10° SW 06:54:20 19° W 06:57:25 10° NW
Lacrosse 5 3.5 06:50:51 10° SW 06:55:05 25° S 06:59:20 10° ESE
Cosmos 1943 4.2 06:52:14 10° WNW 06:56:57 26° SW 07:01:43 10° S
PSLV R/B 4.0 06:54:00 10° S 06:58:18 71° WSW 07:02:32 10° NNW
USA 276 2.6 06:55:13 10° W 06:58:23 48° SSW 07:01:37 10° ESE
CZ-2D R/B 3.6 06:54:41 10° NNE 06:58:36 73° ESE 07:02:33 10° S
X-37B 1.4 06:57:46 10° WNW 07:00:58 51° NNE 07:04:10 10° E
BREEZE-M DEB (TANK) 3.0 06:54:29 10° W 07:02:42 55° S 07:05:33 10° ESE
Cosmos 1689 Rocket 3.0 07:03:22 10° S 07:06:03 28° WSW 07:08:40 10° NW
Cosmos 1782 4.5 07:04:52 10° S 07:08:41 38° ESE 07:12:26 10° NE
COSMO-SKYMED 1 2.6 07:04:55 10° S 07:09:20 67° WSW 07:13:40 10° NNW
